| time (UTC) | temp F | wind direction | speed MPH | gust MPH | rain 1hr in | rain 24hr in | rain mn in | humidity % | barometer mb |
| 20260506103002 | 58 | 71 | 5.0 | 13.0 | 0.00 | 0.00 | 0.00 | 53 | 1013.9 |
| 20260506093004 | 56 | 350 | 3.0 | 9.0 | 0.00 | 0.00 | 0.00 | 62 | 1013.9 |
| 20260506090004 | 54 | 13 | 4.0 | 10.0 | 0.00 | 0.00 | 0.00 | 64 | 1013.9 |
| 20260506023003 | 50 | 34 | 0.0 | 8.0 | 0.00 | 0.00 | 0.00 | 81 | 1013.2 |
| 20260506020004 | 50 | 86 | 0.0 | 5.0 | 0.00 | 0.00 | 0.00 | 82 | 1013.3 |
| 20260506010005 | 50 | 22 | 2.0 | 9.0 | 0.00 | 0.00 | 0.00 | 81 | 1013.3 |
| 20260506003004 | 50 | 44 | 1.0 | 6.0 | 0.00 | 0.00 | 0.00 | 81 | 1013.6 |
| 20260506000004 | 50 | 56 | 1.0 | 7.0 | 0.00 | 0.00 | 0.00 | 79 | 1013.5 |
| 20260505223004 | 51 | 62 | 1.0 | 9.0 | 0.00 | 0.00 | 0.00 | 75 | 1013.5 |
| 20260505210004 | 51 | 329 | 0.0 | 1.0 | 0.00 | 0.00 | 0.00 | 73 | 1013.4 |
| 20260505203004 | 51 | 12 | 0.0 | 2.0 | 0.00 | 0.00 | 0.00 | 73 | 1013.3 |
| 20260505200004 | 51 | 296 | 0.0 | 1.0 | 0.00 | 0.00 | 0.00 | 72 | 1013.0 |
| 20260505193004 | 53 | 38 | 1.0 | 3.0 | 0.00 | 0.00 | 0.00 | 68 | 1012.6 |
| 20260505190004 | 55 | 44 | 2.0 | 6.0 | 0.00 | 0.00 | 0.00 | 64 | 1012.5 |
| 20260505183006 | 56 | 69 | 2.0 | 8.0 | 0.00 | 0.00 | 0.00 | 61 | 1012.3 |
| 20260505173003 | 58 | 68 | 2.0 | 12.0 | 0.00 | 0.00 | 0.00 | 55 | 1012.4 |
| 20260505170003 | 59 | 44 | 3.0 | 12.0 | 0.00 | 0.00 | 0.00 | 55 | 1012.4 |
| 20260505153003 | 61 | 67 | 7.0 | 13.0 | 0.00 | 0.00 | 0.00 | 56 | 1012.3 |
| 20260505123004 | 62 | 76 | 5.0 | 12.0 | 0.00 | 0.00 | 0.00 | 58 | 1012.9 |
| 20260505113003 | 61 | 50 | 4.0 | 9.0 | 0.00 | 0.00 | 0.00 | 62 | 1013.3 |